Regional Weather Roundup
Issued by NWS Upton, NY

Current Version |  Previous Version |  Text Only |  Print | Product List |  Glossary Off
Versions: 1 2 3 4 5 6 7 8 9 10 11 12 13 14 15 16 17 18 19 20 21 22 23 24 25 26 27 28 29 30 31 32 33 34 35 36 37 38 39 40 41 42 43 44 45 46 47 48 49 50
760 ASUS41 KOKX 220910 RWROKX Regional Weather Roundup National Weather Service New York NY 500 AM EDT SAT JUN 22 2024 Note: "FAIR" indicates few or no clouds below 12,000 feet with no significant weather and/or obstructions to visibility. NYZ071-072-176-178-NJZ106-104-221000- New York City Metro Area CITY SKY/WX TMP DP RH WIND PRES REMARKS Central Park PTCLDY 77 69 76 NE3 30.08S World Trd Ctr NOT AVBL Bronx Lehman C N/A 75 70 83 E3 N/A LaGuardia Arpt MOCLDY 73 66 78 NE8 30.04F Queens College N/A 75 68 78 SW5 N/A Kennedy Intl MOCLDY 72 67 84 CALM 30.06S Breezy Point N/A N/A N/A N/A SE1 N/A Brooklyn Coll N/A 75 68 78 SE2 N/A Staten Island N/A 77 70 78 S5 N/A Newark/Liberty MOCLDY 80 70 71 CALM 30.04F Teterboro PTCLDY 77 70 79 CALM 30.04S $$ NYZ177-179-078>081-221000- Long Island New York CITY SKY/WX TMP DP RH WIND PRES REMARKS Jones Beach N/A 68 N/A N/A SW1 N/A Wantagh N/A 70 68 94 SW1 N/A Hempstead NOT AVBL Matinecock Pt N/A 70 N/A N/A E2 N/A Farmingdale MOCLDY 73 68 84 CALM 30.06S MacArthur/ISP MOCLDY 72 69 90 SW5 30.05F Stony Brook N/A 72 70 94 CALM N/A Shirley PTCLDY 73 69 87 CALM 30.06F Mt Sinai Harb N/A N/A N/A N/A CALM N/A Westhampton PTCLDY 71 69 93 SW6 30.07F East Hampton CLOUDY 70 69 96 SW6 30.05F Southold N/A 70 68 94 SW1 N/A Montauk N/A 72 69 90 CALM 30.07F $$ NYZ052-065-067-221000- Hudson Valley CITY SKY/WX TMP DP RH WIND PRES REMARKS White Plains FOG 70 69 97 CALM 30.06S VSB 1/2 Larchmont Harb N/A N/A N/A N/A E2 N/A Croton On Huds N/A 72 N/A N/A NE2 N/A Somers N/A 70 70 100 CALM N/A Brewster N/A 70 70 100 CALM N/A Newburgh CLOUDY 70 70 100 CALM 30.06S Montgomery FOG 69 69 100 CALM 30.06S VSB 1/2 Otisville N/A 70 68 94 S2 N/A Warwick N/A 68 68 100 S1 N/A Suffern N/A 68 68 100 SE1 N/A Poughkeepsie PTCLDY 70 69 97 CALM 30.04S FOG Albany CLOUDY 72 66 81 CALM 30.05S $$ NJZ001-105-106-008-010-013-015-019>022-104-221000- New Jersey CITY SKY/WX TMP DP RH WIND PRES REMARKS Newark/Liberty MOCLDY 80 70 71 CALM 30.04F Teterboro PTCLDY 77 70 79 CALM 30.04S Caldwell PTCLDY 76 69 79 CALM 30.06S Somerville MOCLDY 72 71 97 CALM 30.04S Linden MOCLDY 79 69 72 W3 30.05F Perth Amboy N/A 75 N/A N/A W3 N/A Sussex FOG 71 70 96 CALM 30.06F VSB 1/4 Andover N/A 70 69 97 CALM 30.08S Trenton MOCLDY 76 69 79 SW5 30.06S Millville CLEAR 71 68 90 CALM 30.08F Atlantic City CLEAR 73 66 78 S5 30.08F Wrightstown PTCLDY 71 68 89 SW3 30.07S Toms River CLEAR 71 68 90 SW7 30.08F Belmar PTCLDY 73 68 84 SW6 30.08S $$ PAZ047>061-062-071-221000- Eastern Pennsylvania CITY SKY/WX TMP DP RH WIND PRES REMARKS Philadelphia MOCLDY 76 69 79 S7 30.07F Allentown CLEAR 73 68 84 CALM 30.06F Scranton MOCLDY 69 66 90 E5 30.08F $$ CTZ002-004>006-009-010-012-RIZ004-006-007-MAZ004-011-015-221000- Southern New England In CT CITY SKY/WX TMP DP RH WIND PRES REMARKS Bradley Intl CLOUDY 74 70 87 S5 30.05S Hartford CLOUDY 73 70 90 CALM 30.05S Danbury CLOUDY 72 70 93 SW3 30.08S FOG Wtrbury/Oxford FOG 69 69 100 CALM 30.09S VSB 1/4 Norwalk Harbor N/A N/A N/A N/A MISG N/A Bridgeport CLOUDY 73 70 90 CALM 30.05F Meriden CLOUDY 72 68 87 S5 30.06S New Haven PTCLDY 72 70 93 CALM 30.06R FOG Chester FOG 68 68 100 CALM 30.07S VSB<1/4 Groton CLOUDY 70 70 100 SE3 30.05S FOG Willimantic CLOUDY 70 68 93 VRB5 30.06S In RI CITY SKY/WX TMP DP RH WIND PRES REMARKS Providence CLOUDY 68 68 100 CALM 30.07S FOG Block Island CLOUDY 68 68 100 SW8 30.07F FOG Westerly CLOUDY 68 67 96 CALM 30.06F FOG In MA CITY SKY/WX TMP DP RH WIND PRES REMARKS Boston CLOUDY 65 63 93 E3 30.08F Worcester FOG 65 64 97 CALM 30.08F VSB 1/2 Westfield CLOUDY 70 70 100 S5 30.05S FOG Provincetown CLOUDY 65 65 100 CALM 30.09F Nantucket FOG 67 67 100 S5 30.08F VSB 1/4 $$ ANZ330-335-338-340-345-350-353-355-221000- Coastal Marine Observations STATION/POSITION TIME SKY/WX TEMP WIND PRES VSBY WAVE AIR SEA DIR/SP/G HT/PER (UTC) (F) (DEG/KT/KT) (MB) (MI) (FT/S) NY Harb Entrance 0850 69 68 210/ 10/ 12 1017.5 2/ 5 20 S Fire Island 0850 71 71 210/ 12/ 14 1017.9 3/ 5 Great South Bay NOT AVBL 23 SSW Montauk P NOT AVBL 15 E Barnegat Li 0856 72 N/A 3/ 5 Hudson Canyon NOT AVBL Kings Point 0830 66 60/ 2/ 5 1017.8 Execution Rocks NOT AVBL Western LI Sound NOT AVBL Central LI Sound NOT AVBL Robbins Reef 0824 180/ 6/ 7 1017.6 $$ >>>>>>>>>>>>>>>>>>>>>>>>>>>> KEY <<<<<<<<<<<<<<<<<<<<<<<<<<< > < > SKY/WX - Sky Condition/Present Weather < > TMP - Temperature in Fahrenheit < > DP - Dew Point in Fahrenheit < > RH - Relative Humidity in Percent < > WIND - Direction (from) and Speed in MPH < > PRES - Mean Sea Level Pressure (inches of Hg) < > WCI - Wind Chill Index < > VSB - Visibility in Miles < > HX - Heat Index < > TC - Temperature in Celsius < > VRB - Variable Wind Direction < > < >>>>>>>>>>>>>>>>>>>>>>>>>>>> KEY <<<<<<<<<<<<<<<<<<<<<<<<<<<